CAPE
0 0 7 22 25 26 55 108 318 471 513 674 853 817 810 850 902 771 700 678 725 488 816 1044 1083 1048 994 608 202 80 0 0 0
0 0 0 1 15 12 39 47 156 383 427 578 951 939 863 833 871 832 740 778 734 424 734 997 880 1115 948 666 202 90 28 0 0
0 0 0 0 2 9 12 33 72 325 458 454 683 973 961 848 832 872 879 801 774 641 810 917 761 995 800 607 376 117 74 30 0
0 0 0 0 16 18 20 26 32 236 493 537 568 825 941 980 932 993 945 896 816 714 960 852 852 854 634 585 460 202 102 38 2
0 0 0 0 19 27 37 64 51 259 538 612 626 787 834 819 877 1058 1118 1036 978 848 1047 814 799 755 632 471 375 162 146 86 9
0 0 0 0 0 0 6 47 91 389 590 714 766 869 959 975 962 935 957 1129 1282 1094 1140 1042 741 709 643 444 291 220 162 157 102
0 0 0 5 0 0 2 32 112 431 731 902 938 1076 1125 1134 1161 1151 1091 1063 1163 1238 1131 1070 1009 774 733 501 312 266 252 194 138
0 0 0 0 0 0 0 17 144 439 824 1133 1114 1227 1392 1327 1307 1316 1344 1273 1248 1254 1280 1158 1148 1130 822 556 489 453 393 324 268
0 0 0 0 0 45 70 99 141 382 824 1322 1369 1372 1461 1593 1562 1570 1573 1571 1474 1373 1312 1325 1090 1137 1228 1017 788 555 406 471 434
0 0 0 0 0 18 36 91 218 383 716 1129 1611 1565 1637 1674 1603 1632 1802 1933 1832 1649 1534 1511 1242 1097 1110 1084 1077 843 679 486 479
0 0 0 0 0 30 153 147 320 460 751 1170 1579 1704 1876 1969 1835 1733 1763 1880 1977 1953 1775 1654 1746 1416 1208 1171 1195 1089 805 688 503
0 0 0 0 0 0 79 208 434 670 789 1157 1650 1733 1887 2024 2062 1977 1976 1912 1930 2080 2118 1894 1799 1664 1397 1283 1248 1072 986 868 642
0 0 0 0 0 33 175 397 695 802 800 1078 1500 1790 1884 2070 2155 2142 2104 2053 2088 2168 2238 2289 2092 1957 1704 1568 1568 1292 1167 933 825
0 0 0 0 0 42 191 460 724 850 905 927 1213 1675 1983 2152 2315 2280 2200 2210 2211 2261 2278 2392 2470 2258 2139 1876 1913 1663 1309 1063 1284
0 8 58 176 0 0 146 439 598 812 930 1039 1135 1345 1607 1918 2092 2353 2341 2267 2371 2393 2466 2561 2661 2620 2465 2097 1854 1414 811 788 1093
591 738 1109 1533 1307 1295 732 0 664 556 773 940 1027 1191 1309 1423 1721 2208 2313 2273 2307 2332 2421 2519 2565 2510 2167 1741 1410 1055 1146 486 724
1419 1897 1717 2000 1894 1826 1866 2034 1582 440 893 714 718 927 1150 1284 1327 1812 2122 2186 2299 2434 2564 2569 2287 1900 1577 1498 1133 852 265 365 350
1644 1781 1604 1682 1813 1726 1590 1245 1553 1453 1367 1474 1038 845 883 1025 1152 1454 1694 1235 1973 2495 2411 2351 1873 1574 1034 856 650 613 365 473 218
981 1313 1286 1205 950 841 523 7 0 26 342 877 1159 1461 1023 1188 1133 888 695 885 869 791 1193 920 693 587 201 28 76 347 212 296 67
263 235 134 6 6 272 312 225 31 0 0 0 4 158 529 723 561 578 876 793 662 560 5 3 0 0 3 135 0 82 74 62 5
CIN
-0 -0 -371 -385 -390 -398 -381 -443 -432 -393 -397 -326 -315 -296 -251 -224 -175 -174 -178 -175 -129 -166 -103 -77 -92 -104 -108 -163 -236 -279 -0 -0 -0
-0 -0 -0 -172 -412 -418 -416 -476 -493 -457 -447 -400 -351 -302 -277 -247 -216 -192 -224 -203 -170 -201 -128 -103 -126 -114 -132 -172 -260 -307 -336 -0 -0
-0 -0 -0 -0 -147 -434 -457 -483 -549 -496 -463 -426 -413 -329 -293 -269 -250 -221 -224 -205 -199 -202 -170 -149 -177 -154 -174 -199 -248 -309 -340 -385 -0
-0 -0 -0 -0 -293 -379 -474 -454 -542 -522 -494 -465 -441 -404 -330 -300 -273 -246 -237 -203 -224 -217 -180 -205 -203 -202 -218 -220 -258 -299 -347 -391 -438
-0 -0 -0 -0 -263 -371 -420 -459 -516 -552 -533 -498 -487 -439 -377 -338 -306 -259 -226 -207 -243 -246 -203 -240 -225 -228 -228 -269 -289 -343 -338 -350 -340
-0 -0 -0 -0 -0 -0 -385 -433 -507 -562 -573 -501 -501 -493 -413 -355 -322 -303 -276 -229 -240 -269 -232 -246 -270 -252 -266 -312 -343 -365 -374 -346 -351
-0 -0 -0 -193 -0 -0 -245 -407 -443 -561 -590 -560 -526 -525 -465 -386 -328 -316 -310 -283 -278 -302 -300 -288 -284 -299 -273 -314 -342 -332 -345 -360 -365
-0 -0 -0 -0 -0 -0 -0 -370 -452 -548 -589 -584 -542 -521 -498 -459 -381 -328 -312 -291 -308 -306 -340 -358 -315 -288 -320 -341 -334 -331 -342 -341 -328
-0 -0 -0 -0 -4 -286 -277 -297 -343 -522 -574 -613 -564 -532 -511 -489 -406 -352 -318 -312 -323 -344 -355 -351 -377 -345 -297 -313 -343 -370 -357 -316 -299
-0 -0 -0 -0 -0 -206 -201 -273 -308 -410 -467 -587 -561 -515 -528 -507 -465 -408 -337 -301 -287 -342 -376 -367 -414 -401 -382 -374 -338 -346 -324 -321 -309
-0 -0 -0 -0 -134 -296 -204 -224 -405 -416 -535 -568 -575 -534 -524 -482 -459 -456 -419 -350 -315 -316 -345 -379 -361 -412 -411 -370 -357 -317 -323 -293 -351
-0 -0 -0 -0 -0 -0 -247 -256 -344 -447 -534 -514 -558 -486 -515 -511 -476 -454 -438 -413 -389 -324 -268 -316 -364 -374 -376 -352 -335 -341 -312 -274 -328
-0 -0 -0 -0 -0 -264 -224 -260 -377 -439 -467 -488 -485 -487 -486 -525 -520 -455 -447 -442 -400 -352 -301 -281 -251 -281 -313 -287 -256 -301 -275 -311 -309
-0 -0 -0 -0 -0 -226 -227 -275 -356 -348 -435 -425 -388 -440 -505 -551 -501 -467 -466 -424 -354 -336 -315 -245 -186 -197 -188 -236 -208 -228 -279 -329 -272
-0 -185 -206 -220 -0 -0 -288 -367 -326 -298 -370 -346 -416 -470 -505 -515 -526 -495 -450 -411 -335 -319 -272 -208 -158 -129 -109 -158 -203 -267 -381 -319 -238
-265 -266 -264 -322 -332 -417 -473 -34 -476 -349 -291 -317 -380 -451 -416 -460 -529 -519 -475 -449 -400 -276 -238 -173 -97 -97 -133 -227 -271 -319 -282 -416 -325
-241 -258 -240 -273 -244 -292 -409 -473 -415 -516 -443 -424 -467 -423 -410 -484 -536 -525 -454 -404 -315 -236 -146 -144 -134 -159 -183 -193 -246 -303 -553 -489 -451
-362 -348 -352 -324 -268 -270 -301 -499 -528 -592 -594 -517 -443 -442 -470 -495 -559 -528 -423 -622 -379 -224 -163 -103 -190 -193 -208 -232 -211 -210 -317 -435 -428
-427 -358 -378 -343 -378 -362 -448 -244 -0 -229 -718 -550 -492 -410 -434 -384 -410 -669 -730 -594 -577 -632 -390 -259 -334 -260 -269 -257 -190 -135 -263 -368 -411
-534 -516 -536 -399 -18 -511 -549 -595 -689 -0 -0 -0 -23 -536 -380 -381 -552 -539 -476 -466 -343 -372 -455 -22 -24 -0 -195 -47 -21 -191 -394 -458 -513
Wind_Speed
33 28 28 28 31 27 25 24 24 24 25 27 23 22 21 20 19 17 15 14 12 13 9 10 11 17 18 16 14 13 13 12 11
25 27 31 32 33 33 34 27 27 28 28 28 26 25 20 19 17 16 13 13 13 10 12 9 12 22 19 16 16 15 13 12 12
18 23 28 34 32 31 30 30 28 29 29 29 27 26 23 20 18 17 13 12 14 11 15 19 21 21 22 19 18 16 14 12 11
14 26 33 36 35 30 28 28 25 27 28 28 27 25 23 20 18 17 15 18 15 19 18 23 21 26 24 21 19 16 16 14 13
14 22 28 43 39 27 23 25 25 26 28 27 27 25 24 22 19 18 20 22 25 20 30 25 25 27 24 21 19 17 14 13 10
26 25 17 18 46 24 21 23 24 23 26 28 25 24 24 23 20 21 24 27 27 24 23 24 28 28 25 20 18 17 15 13 10
23 20 14 17 19 23 22 21 23 23 24 25 24 24 26 25 24 23 26 28 26 21 23 24 28 27 24 20 18 18 16 13 11
24 20 15 16 19 23 23 25 21 22 21 21 24 24 27 28 26 24 24 25 23 21 20 22 23 19 18 18 18 17 15 12 11
33 26 16 17 20 23 21 23 25 24 22 22 23 24 29 25 25 24 25 23 21 21 22 20 18 21 19 18 17 15 15 13 11
25 29 22 15 19 22 20 21 24 25 26 22 22 24 24 24 23 24 24 22 20 23 24 20 20 20 19 19 17 16 17 14 11
21 22 19 17 21 21 21 16 18 21 22 23 23 22 21 21 21 24 23 22 25 23 22 23 22 21 20 19 18 17 16 14 12
31 26 23 19 24 21 20 18 17 19 22 25 24 23 23 22 22 23 23 25 26 24 22 22 22 21 19 19 18 16 14 12 11
24 22 20 19 20 20 20 19 17 17 21 24 26 25 24 23 22 23 24 25 25 24 23 23 23 22 21 19 18 15 13 11 11
21 21 22 22 21 18 16 16 18 21 22 26 27 25 23 23 23 22 24 23 24 26 25 23 23 22 22 20 17 16 13 11 10
19 20 21 22 23 23 23 20 20 23 25 24 25 25 24 24 24 23 23 24 25 26 27 25 24 22 20 20 19 17 14 12 12
17 19 19 21 21 20 23 27 27 28 29 25 25 26 27 27 28 26 26 26 25 28 28 26 25 23 22 19 17 16 12 11 10
15 17 19 20 22 24 24 24 26 31 34 33 35 35 32 32 31 27 26 26 27 26 29 28 28 25 23 21 19 17 14 9 5
14 17 18 20 23 26 29 29 28 27 30 34 37 38 40 37 33 30 27 27 26 25 28 28 27 28 25 21 19 21 13 6 6
16 19 21 23 25 28 29 32 34 33 30 30 33 38 37 33 33 29 27 27 24 20 19 21 19 21 21 12 14 11 10 6 5
19 21 23 26 28 30 31 33 34 34 34 34 33 31 32 29 29 28 28 22 21 15 10 14 15 15 15 15 3 18 9 5 2
Wind_Direction
200 197 196 198 197 195 193 190 189 188 189 190 191 193 194 196 194 192 192 189 187 184 181 167 159 161 160 153 143 136 132 127 124
197 196 195 197 198 196 194 192 190 189 188 189 189 192 197 199 201 199 200 195 192 194 185 177 166 168 164 159 155 150 141 142 140
210 202 199 201 199 196 195 194 193 191 191 191 190 190 192 197 203 205 214 202 195 192 182 177 173 172 171 167 165 160 157 155 151
235 204 204 204 203 198 195 194 195 196 193 193 193 192 192 194 198 204 214 196 196 187 180 177 176 176 175 173 170 166 167 168 168
256 211 209 210 204 200 198 196 197 198 196 196 196 195 194 195 196 197 199 196 190 187 185 181 179 179 179 177 176 175 176 178 175
279 276 237 239 233 234 206 202 198 200 198 199 197 196 195 197 198 196 195 193 190 187 186 184 184 185 185 184 183 186 189 190 191
283 280 260 244 242 228 222 211 203 201 200 198 198 195 194 195 196 195 194 193 191 191 190 188 187 189 190 191 192 195 197 200 204
276 283 256 237 230 218 219 240 233 208 207 200 198 198 195 196 195 195 194 194 196 197 198 197 195 198 199 200 202 204 204 210 220
272 278 272 235 234 220 224 223 228 215 216 204 200 201 200 198 197 196 197 198 204 205 201 210 215 207 210 211 214 218 216 223 237
258 272 269 241 211 210 214 207 204 212 211 213 208 204 205 202 204 204 201 204 213 210 206 219 219 223 224 225 227 225 223 231 255
263 270 271 241 232 248 245 232 230 213 222 216 213 214 214 214 213 210 211 212 211 219 220 216 222 230 234 242 239 234 232 237 263
267 271 275 250 239 242 249 249 236 226 229 225 224 221 227 223 219 216 217 216 214 217 228 232 231 241 242 240 255 248 240 247 264
270 265 268 269 262 260 252 245 239 227 232 227 228 219 224 227 226 225 220 219 224 228 230 229 245 249 249 250 259 259 240 251 273
268 264 267 270 268 258 252 250 242 240 238 226 223 224 234 243 238 230 228 235 242 239 238 241 243 247 257 257 253 261 250 243 266
270 273 272 274 272 273 273 265 250 249 243 241 237 240 242 245 243 245 247 245 246 245 247 245 246 246 250 255 259 261 264 263 283
277 281 284 285 285 286 288 279 273 268 260 254 248 244 245 249 251 250 247 248 245 247 245 247 249 246 246 245 252 253 246 246 275
286 289 295 299 296 293 295 298 292 280 277 274 267 259 255 256 251 247 249 255 255 252 253 245 245 246 249 251 249 246 252 261 225
299 299 304 308 303 297 297 301 302 301 295 283 273 267 266 263 255 253 254 255 250 248 251 246 247 252 252 247 249 260 245 261 255
310 310 308 308 304 303 306 302 299 299 301 297 288 278 268 259 257 251 251 255 255 251 252 255 254 264 268 252 255 281 274 239 181
307 311 311 310 306 308 307 304 304 301 296 294 293 288 281 261 253 246 246 240 247 243 251 263 269 249 251 314 230 179 187 198 192